CST,Max TemperatureF,Mean TemperatureF,Min TemperatureF,Max Dew PointF,MeanDew PointF,Min DewpointF,Max Humidity, Mean Humidity, Min Humidity, Max Sea Level PressureIn, Mean Sea Level PressureIn, Min Sea Level PressureIn, Max VisibilityMiles, Mean VisibilityMiles, Min VisibilityMiles, Max Wind SpeedMPH, Mean Wind SpeedMPH, Max Gust SpeedMPH,PrecipitationIn, CloudCover, Events, WindDirDegrees
2012-12-1,66,58,50,50,45,41,82,65,48,30.25,30.18,30.13,10,10,10,15,8,23,0.00,4,,177
2012-12-2,64,62,59,59,56,50,88,80,72,30.18,30.14,30.11,10,10,10,20,11,26,0.00,6,,196
2012-12-3,71,65,59,59,55,50,88,74,52,30.18,30.12,30.07,10,10,10,16,9,23,0.00,4,,189
2012-12-4,66,57,48,61,54,41,100,85,68,30.27,30.14,30.06,10,9,1,21,9,26,0.49,7,,218
2012-12-5,59,50,41,41,36,32,93,65,36,30.35,30.26,30.15,10,10,9,14,7,18,0.00,0,,54
2012-12-6,53,47,41,54,44,32,100,86,70,30.14,30.05,29.96,10,9,1,8,5,,0.00,7,,132
2012-12-7,59,56,53,57,56,54,100,98,94,29.96,29.91,29.86,10,7,0,10,6,16,0.33,7,,188
2012-12-8,62,56,50,57,55,50,100,92,77,29.97,29.92,29.87,10,6,2,12,7,,0.02,7,,254
2012-12-9,64,58,50,59,56,50,100,95,82,29.94,29.84,29.75,10,7,0,24,8,28,1.24,7,,180
2012-12-10,50,41,32,48,31,23,100,79,69,30.08,29.91,29.80,10,10,4,18,12,22,0.00,8,,342
2012-12-11,39,32,26,25,22,19,93,68,49,30.28,30.17,30.08,10,10,10,10,4,,0.00,2,,329
2012-12-12,46,34,23,28,24,21,93,71,40,30.39,30.33,30.28,10,10,10,8,2,,0.00,0,,92
2012-12-13,51,38,24,28,24,18,93,62,28,30.41,30.34,30.28,10,10,10,7,3,,0.00,0,,154
2012-12-14,57,42,28,37,28,18,80,53,33,30.32,30.23,30.10,10,10,10,10,6,,0.00,0,,174
2012-12-15,59,52,46,55,48,37,94,85,62,30.08,29.91,29.81,10,9,3,18,11,29,0.03,8,,185
2012-12-16,62,58,55,57,54,50,100,87,63,29.81,29.76,29.69,10,10,10,10,8,21,0.00,2,,202
2012-12-17,59,52,44,54,48,37,100,84,63,29.83,29.71,29.60,10,10,8,20,8,25,0.01,6,,247
2012-12-18,57,46,35,39,37,32,100,73,47,29.92,29.88,29.82,10,9,3,14,7,21,0.00,2,,206
2012-12-19,62,48,35,50,43,36,100,73,51,30.00,29.91,29.72,10,10,10,20,7,30,0.00,2,,152
2012-12-20,60,46,32,57,36,19,100,70,51,29.98,29.68,29.47,10,9,2,37,20,50,0.57,7,,241
2012-12-21,41,34,26,19,16,10,69,51,31,30.29,30.17,29.98,10,10,10,22,17,31,0.00,0,,294
2012-12-22,48,34,19,25,17,12,86,51,32,30.34,30.23,30.08,10,10,10,14,6,20,0.00,0,,205
2012-12-23,59,50,41,46,38,25,100,71,53,30.07,29.97,29.85,10,8,1,14,8,18,0.00,4,,202
2012-12-24,50,41,32,50,42,28,100,93,70,30.07,29.90,29.79,10,4,0,15,4,24,0.00,7,,338
2012-12-25,35,34,32,32,29,27,100,85,75,30.12,29.98,29.60,10,8,1,30,15,40,0.47,8,,51
2012-12-26,33,32,32,32,28,27,100,86,80,30.14,29.85,29.55,10,7,0,25,17,33,0.40,8,,332
2012-12-27,32,30,28,28,26,25,87,82,75,30.22,30.15,30.09,10,10,10,9,6,,0.00,8,,42
2012-12-28,37,34,32,36,32,27,100,90,80,30.09,29.95,29.79,10,7,1,13,5,18,0.29,6,,104
2012-12-29,32,28,23,32,27,19,100,87,69,30.39,30.12,29.83,10,7,2,20,12,25,0.01,6,,304
2012-12-30,39,29,19,25,23,18,100,76,56,30.53,30.43,30.34,10,9,4,8,5,,0.00,0,,203
2012-12-31,41,36,32,36,29,25,100,77,61,30.33,30.20,30.04,10,9,2,10,5,,0.13,6,,174